This demonstration page uses our WeatherBlox Daily Observations layout. Learn more.

Left ArrowRight Arrow

Hourly Observations for September 30, 2022

Temp ( °F °C ) Dew Point ( °F °C ) Humidity (%) Winds ( mph kmh ) Pressure ( in mb ) Visibility ( mi km ) Precip ( " mm )
12:52 am 00:52 Clear 49 9.4 40 4.4 71 71 ESE 8 13 30.21 1023 10 16 0.00 0.00
1:52 am 01:52 Clear 51 10.6 40 4.4 65 65 ESE 8 13 30.20 1023 10 16 0.00 0.00
2:52 am 02:52 Clear 50 10 39 3.9 66 66 SE 8 13 30.19 1022 10 16 0.00 0.00
3:52 am 03:52 Clear 48 8.9 39 3.9 71 71 SE 6 9 30.19 1022 10 16 0.00 0.00
4:52 am 04:52 Clear 45 7.2 38 3.3 76 76 SE 6 9 30.18 1022 10 16 0.00 0.00
5:52 am 05:52 Clear 45 7.2 38 3.3 76 76 SE 6 9 30.19 1022 10 16 0.00 0.00
6:52 am 06:52 Clear 44 6.7 38 3.3 79 79 SSE 3 6 30.20 1023 10 16 0.00 0.00
7:52 am 07:52 Sunny 46 7.8 40 4.4 79 79 Calm 30.22 1023 10 16 0.00 0.00
8:52 am 08:52 Sunny 55 12.8 44 6.7 66 66 SE 8 13 30.22 1023 10 16 0.00 0.00
9:52 am 09:52 Sunny 61 16.1 45 7.2 56 56 SE 7 11 30.22 1024 10 16 0.00 0.00
10:52 am 10:52 Sunny 64 17.8 45 7.2 50 50 SE 5 7 30.22 1023 10 16 0.00 0.00
11:52 am 11:52 Sunny 67 19.4 43 6.1 42 42 ENE 6 9 30.19 1022 10 16 0.00 0.00
12:52 pm 12:52 Sunny 71 21.7 40 4.4 32 32 VRB 6 9 30.16 1021 10 16 0.00 0.00
1:52 pm 13:52 Sunny 73 22.8 35 1.7 25 25 Calm 30.12 1020 10 16 0.00 0.00
2:52 pm 14:52 Sunny 76 24.4 33 0.6 21 21 NE 9 15 30.08 1019 10 16 0.00 0.00
3:52 pm 15:52 Sunny 76 24.4 30 -1.1 18 18 NE 9 15 30.06 1018 10 16 0.00 0.00
4:52 pm 16:52 Sunny 75 23.9 33 0.6 22 22 E 9 15 30.05 1018 10 16 0.00 0.00
5:52 pm 17:52 Sunny 73 22.8 34 1.1 24 24 E 8 13 30.04 1017 10 16 0.00 0.00
6:52 pm 18:52 Sunny 69 20.6 38 3.3 32 32 ENE 8 13 30.04 1017 10 16 0.00 0.00
7:52 pm 19:52 Clear 65 18.3 41 5 41 41 ENE 6 9 30.05 1018 10 16 0.00 0.00
8:52 pm 20:52 Clear 61 16.1 42 5.6 50 50 E 7 11 30.06 1018 10 16 0.00 0.00
9:52 pm 21:52 Clear 59 15 42 5.6 53 53 E 6 9 30.06 1018 10 16 0.00 0.00
10:52 pm 22:52 Clear 56 13.3 42 5.6 60 60 E 7 11 30.07 1018 10 16 0.00 0.00
11:52 pm 23:52 Clear 55 12.8 42 5.6 62 62 ESE 7 11 30.07 1018 10 16 0.00 0.00

Powered by AerisWeather